FW4287 Weather Reports


time (UTC)temp
F
wind
direction
speed
knots
gust
knots
rain 1hr
in
rain 24hr
in
rain mn
in
humidity
%
barometer
mb
20260503203145 79 32 7.0 14.8 0.00 0.00 0.00 30 1013.9
20260503201530 79 31 6.1 14.8 0.00 0.00 0.00 31 1013.9
20260503200034 78 36 5.2 12.2 0.00 0.00 0.00 31 1014.1
20260503194530 78 27 7.0 17.4 0.00 0.00 0.00 32 1014.3
20260503193031 78 41 4.3 9.6 0.00 0.00 0.00 32 1014.4
20260503191530 78 24 7.0 15.6 0.00 0.00 0.00 34 1014.5
20260503184529 76 325 3.5 7.8 0.00 0.00 0.00 41 1014.7
20260503183029 76 343 2.6 9.6 0.00 0.00 0.00 41 1014.8
20260503181607 75 323 3.5 10.4 0.00 0.00 0.00 42 1014.9
20260503180144 74 315 4.3 7.8 0.00 0.00 0.00 45 1015.0
20260503174531 72 289 4.3 7.0 0.00 0.00 0.00 47 1015.1
20260503173031 72 296 3.5 5.2 0.00 0.00 0.00 47 1015.3
20260503171530 70 292 4.3 6.1 0.00 0.00 0.00 48 1015.3
20260503120105 46 135 0.0 0.0 0.00 0.00 0.00 88 1015.4
20260503110146 48 157 0.0 1.7 0.00 0.00 0.00 85 1015.6
20260503081529 50 180 0.0 0.9 0.00 0.00 0.00 87 1015.5
20260503071530 52 164 0.0 1.7 0.00 0.00 0.00 85 1015.5
20260503054532 55 168 0.0 2.6 0.00 0.00 0.00 79 1015.5
20260503053030 56 200 0.0 1.7 0.00 0.00 0.00 78 1015.4
20260503051530 57 178 0.0 1.7 0.00 0.00 0.00 74 1015.4
20260503050033 59 154 0.0 2.6 0.00 0.00 0.00 72 1015.4
20260503041530 59 135 0.0 1.7 0.00 0.00 0.00 73 1015.0
20260503040038 60 135 0.0 0.0 0.00 0.00 0.00 70 1014.8
20260503034531 62 135 0.0 0.0 0.00 0.00 0.00 68 1014.6
20260503033030 63 135 0.0 2.6 0.00 0.00 0.00 66 1014.4
20260503031530 65 155 0.0 2.6 0.00 0.00 0.00 65 1014.0
20260503030031 66 157 0.0 2.6 0.00 0.00 0.00 64 1013.7
20260503024528 66 129 0.0 1.7 0.00 0.00 0.00 64 1013.5
20260503020030 72 158 0.0 1.7 0.00 0.00 0.00 55 1013.3
20260503014529 74 271 0.0 2.6 0.00 0.00 0.00 46 1013.2
20260503013030 76 3 0.0 2.6 0.00 0.00 0.00 38 1013.2
20260503011608 76 20 1.7 5.2 0.00 0.00 0.00 37 1013.2
20260503010031 76 54 2.6 6.1 0.00 0.00 0.00 38 1013.2
20260503004529 76 33 2.6 7.0 0.00 0.00 0.00 37 1013.2
20260503003030 77 37 1.7 6.1 0.00 0.00 0.00 37 1013.2
20260503001531 77 30 3.5 8.7 0.00 0.00 0.00 36 1013.2
20260503000033 77 50 4.3 9.6 0.00 0.00 0.00 37 1013.3
20260502234532 77 30 3.5 6.1 0.00 0.00 0.00 37 1013.5
20260502233033 77 48 1.7 5.2 0.00 0.00 0.00 37 1013.6
20260502230034 76 66 4.3 8.7 0.00 0.00 0.00 38 1014.0
20260502224531 76 43 5.2 9.6 0.00 0.00 0.00 39 1014.2
20260502223031 76 32 5.2 14.8 0.00 0.00 0.00 39 1014.4
20260502221551 76 343 5.2 11.3 0.00 0.00 0.00 40 1014.5
20260502213032 73 334 3.5 8.7 0.00 0.00 0.00 50 1015.0
20260502211645 72 306 3.5 8.7 0.00 0.00 0.00 52 1015.1